User: anonymous   Login
Location: Chakepay
(13.3931°S, 72.1925°W)
Time: 10:31:01
(UTC+00:00)
Language:

Cosmos 2227 Rocket - Orbit

View from above orbital plane
View from above orbital plane
View from above satellite
View from above satellite

Ground track
Ground track

The orbit data is extracted from the following two-line orbital elements,

1 22285U 92093B   20022.40606275 -.00000158 +00000-0 -56800-4 0  9997
2 22285 071.0212 021.0040 0002608 151.5302 208.5964 14.15036310396538
Epoch (UTC): 22 January 2020 09:44:43
Eccentricity: 0.0002608
inclination: 71.0212°
perigee height: 840 km
apogee height: 844 km
right ascension of ascending node: 21.0040°
argument of perigee: 151.5302°
revolutions per day: 14.15036310
mean anomaly at epoch: 208.5964°
orbit number at epoch: 39653

The dashed part of the orbit path shows where the satellite is in the earth's shadow,  

DLR